M I D A S
Marine Information and Data Acquisition System
Tripno 1714 of the Zeeleeuw from 2009-06-23 06:43:27 to 2009-06-23 14:36:06
Back to CruiseResearch ActivitiesStationsMapUnderway DataData graphs

EquipmentUnitsComments
TimeDGPSUTC
LatitudeDGPSDM.mWGS84
LongitudeDGPSDM.mWGS84
SpeedMeteo Stationm/sRelative wind speed
DirectionMeteo StationdegRelative wind direction
TemperatureMeteo Stationdeg CelciusAir temperature
PressureMeteo StationPaAtmospheric pressure
HumidityMeteo Station%Relative humidity
Missing or incorrect values are displayed as -999
Metereological data collected by the RV Zeeleeuw from 2009-06-23 06:50:02 to 2009-06-23 14:40:53
Time Latitude Longitude Speed Direction Temperature Pressure Humidity
2009-06-23 06:51 51°13.662 2°55.961 2.3 302 16 102900 68
2009-06-23 06:52 51°13.662 2°55.956 2.1 303 16.1 102900 68
2009-06-23 06:53 51°13.669 2°55.941 2.6 309 16.2 102900 68
2009-06-23 06:54 51°13.688 2°55.888 2 310 16.2 102900 67
2009-06-23 06:55 51°13.7 2°55.802 0.7 357 16.2 102900 66
2009-06-23 06:56 51°13.7 2°55.739 2 340 16.1 102900 66
2009-06-23 06:57 51°13.709 2°55.745 2.3 5 16 102900 67
2009-06-23 06:58 51°13.713 2°55.739 2.4 13 15.8 102900 68
2009-06-23 06:59 51°13.752 2°55.706 1.4 18 15.7 102910 68
2009-06-23 07:00 51°13.833 2°55.635 2.7 351 15.6 102900 68
2009-06-23 07:01 51°13.931 2°55.558 4.9 353 15.5 102900 69
2009-06-23 07:02 51°14.031 2°55.479 2.8 357 15.3 102900 68
2009-06-23 07:03 51°14.121 2°55.411 2.6 6 15.3 102910 70
2009-06-23 07:04 51°14.214 2°55.329 4.2 352 15.3 102910 70
2009-06-23 07:05 51°14.294 2°55.207 5 356 15.3 102910 71
2009-06-23 07:06 51°14.386 2°55.022 5.7 351 15.2 102900 68
2009-06-23 07:07 51°14.516 2°54.825 6.9 346 15.1 102900 69
2009-06-23 07:08 51°14.675 2°54.667 7 342 15 102900 69
2009-06-23 07:09 51°14.846 2°54.533 6.6 344 15 102900 70
2009-06-23 07:10 51°15.011 2°54.403 6.7 348 15 102910 70
2009-06-23 07:11 51°15.151 2°54.21 5.6 352 14.9 102900 69
2009-06-23 07:12 51°15.266 2°53.965 4.6 354 14.9 102910 69
2009-06-23 07:13 51°15.355 2°53.674 4.7 349 14.9 102910 69
2009-06-23 07:14 51°15.447 2°53.389 5.3 350 14.9 102910 69
2009-06-23 07:15 51°15.541 2°53.109 4.9 346 15 102910 71
2009-06-23 07:16 51°15.661 2°52.854 7.2 343 15 102910 70
2009-06-23 07:17 51°15.827 2°52.739 8.1 345 15 102910 69
2009-06-23 07:18 51°16.005 2°52.66 8.9 343 15 102910 69
2009-06-23 07:19 51°16.178 2°52.641 8.5 341 15.1 102910 68
2009-06-23 07:20 51°16.35 2°52.617 8.3 345 15.2 102900 70
2009-06-23 07:21 51°16.527 2°52.596 7.7 348 15.1 102900 69
2009-06-23 07:22 51°16.706 2°52.562 8.2 346 15.1 102900 73
2009-06-23 07:23 51°16.88 2°52.521 9.8 346 15.1 102900 73
2009-06-23 07:24 51°17.052 2°52.48 9.4 346 15 102910 72
2009-06-23 07:25 51°17.225 2°52.441 8.9 348 14.9 102900 71
2009-06-23 07:26 51°17.394 2°52.361 8.7 350 14.9 102900 73
2009-06-23 07:27 51°17.559 2°52.261 8.4 347 14.9 102900 74
2009-06-23 07:28 51°17.727 2°52.16 8.9 350 14.8 102900 75
2009-06-23 07:29 51°17.898 2°52.063 8.9 350 14.8 102900 73
2009-06-23 07:30 51°18.064 2°51.972 8 351 14.8 102910 72
2009-06-23 07:31 51°18.233 2°51.872 7.7 351 14.8 102910 70
2009-06-23 07:32 51°18.403 2°51.772 8 344 14.8 102910 73
2009-06-23 07:33 51°18.57 2°51.661 6.9 348 14.8 102910 74
2009-06-23 07:34 51°18.738 2°51.539 8 347 14.9 102910 75
2009-06-23 07:35 51°18.903 2°51.408 7.4 350 14.9 102900 76
2009-06-23 07:36 51°19.067 2°51.269 7.1 349 14.9 102900 77
2009-06-23 07:37 51°19.23 2°51.134 8.4 347 14.9 102910 76
2009-06-23 07:38 51°19.395 2°50.999 8.9 347 14.8 102900 74
2009-06-23 07:39 51°19.559 2°50.869 9 347 14.9 102910 72
2009-06-23 07:40 51°19.723 2°50.741 7.5 349 14.9 102910 70
2009-06-23 07:41 51°19.889 2°50.614 7.5 349 14.9 102910 73
2009-06-23 07:42 51°20.057 2°50.485 7.2 346 14.9 102900 73
2009-06-23 07:43 51°20.223 2°50.346 6.8 347 14.9 102900 73
2009-06-23 07:44 51°20.391 2°50.207 9.4 347 14.9 102900 72
2009-06-23 07:45 51°20.562 2°50.074 8.8 349 15 102910 72
2009-06-23 07:46 51°20.734 2°49.942 9.4 346 15.1 102900 71
2009-06-23 07:47 51°20.911 2°49.805 8.5 344 15.1 102910 72
2009-06-23 07:48 51°21.082 2°49.673 8.8 342 15.2 102910 72
2009-06-23 07:49 51°21.257 2°49.538 7.8 343 15.3 102910 70
2009-06-23 07:50 51°21.432 2°49.409 8.8 342 15.3 102920 72
2009-06-23 07:51 51°21.608 2°49.28 7.9 343 15.4 102920 72
2009-06-23 07:52 51°21.784 2°49.149 9.3 342 15.4 102920 72
2009-06-23 07:53 51°21.962 2°49.021 8.4 344 15.3 102910 72
2009-06-23 07:54 51°22.142 2°48.894 7.3 343 15.4 102920 75
2009-06-23 07:55 51°22.318 2°48.776 8.4 344 15.4 102920 75
2009-06-23 07:56 51°22.487 2°48.665 7.8 345 15.4 102920 74
2009-06-23 07:57 51°22.653 2°48.56 7.3 344 15.4 102910 73
2009-06-23 07:58 51°22.818 2°48.449 8.3 346 15.4 102910 72
2009-06-23 07:59 51°22.98 2°48.325 7.3 344 15.4 102910 72
2009-06-23 08:00 51°23.144 2°48.202 9 344 15.5 102920 73
2009-06-23 08:01 51°23.31 2°48.078 7.7 341 15.4 102920 73
2009-06-23 08:02 51°23.477 2°47.949 7.4 339 15.5 102920 74
2009-06-23 08:03 51°23.644 2°47.818 8.4 341 15.6 102920 74
2009-06-23 08:04 51°23.812 2°47.69 7.7 342 15.6 102920 73
2009-06-23 08:05 51°23.982 2°47.565 10.4 344 15.7 102920 74
2009-06-23 08:06 51°24.151 2°47.437 9.5 344 15.6 102910 74
2009-06-23 08:07 51°24.32 2°47.306 8.8 342 15.5 102920 72
2009-06-23 08:08 51°24.489 2°47.178 9.7 342 15.6 102920 72
2009-06-23 08:09 51°24.662 2°47.049 9.9 343 15.5 102920 71
2009-06-23 08:10 51°24.835 2°46.914 8.5 344 15.5 102920 72
2009-06-23 08:11 51°25.009 2°46.786 8.9 341 15.5 102920 73
2009-06-23 08:12 51°25.181 2°46.659 9.5 344 15.6 102910 75
2009-06-23 08:13 51°25.352 2°46.53 10.5 346 15.5 102910 74
2009-06-23 08:14 51°25.522 2°46.405 9.4 347 15.3 102910 73
2009-06-23 08:15 51°25.689 2°46.283 9.9 343 15.3 102910 73
2009-06-23 08:16 51°25.857 2°46.158 9 345 15.3 102920 72
2009-06-23 08:17 51°26.022 2°46.03 8.7 345 15.2 102910 71
2009-06-23 08:18 51°26.189 2°45.903 9.2 344 15.2 102910 72
2009-06-23 08:19 51°26.358 2°45.777 8 346 15.2 102920 74
2009-06-23 08:20 51°26.527 2°45.649 8.2 346 15.2 102920 76
2009-06-23 08:21 51°26.698 2°45.52 8.3 343 15.2 102920 77
2009-06-23 08:22 51°26.871 2°45.394 8.9 344 15.2 102920 78
2009-06-23 08:23 51°27.043 2°45.263 7.5 342 15.3 102920 77
2009-06-23 08:24 51°27.214 2°45.127 9 343 15.4 102910 78
2009-06-23 08:25 51°27.385 2°44.998 7.8 341 15.4 102920 78
2009-06-23 08:26 51°27.556 2°44.865 9.4 342 15.4 102920 79
2009-06-23 08:27 51°27.729 2°44.744 8.8 340 15.4 102920 79
2009-06-23 08:28 51°27.902 2°44.629 8.4 345 15.5 102930 80
2009-06-23 08:29 51°28.076 2°44.513 9.7 344 15.4 102910 78
2009-06-23 08:30 51°28.243 2°44.4 9.5 343 15.4 102920 78
2009-06-23 08:31 51°28.413 2°44.289 9 341 15.4 102920 78
2009-06-23 08:32 51°28.584 2°44.18 9.6 341 15.4 102920 78
2009-06-23 08:33 51°28.755 2°44.068 8.9 342 15.5 102920 78
2009-06-23 08:34 51°28.923 2°43.964 9.7 341 15.5 102920 78
2009-06-23 08:35 51°29.095 2°43.857 9.7 341 15.5 102920 78
2009-06-23 08:36 51°29.26 2°43.749 8.7 343 15.5 102920 77
2009-06-23 08:37 51°29.427 2°43.64 8.9 338 15.5 102920 77
2009-06-23 08:38 51°29.594 2°43.536 9 336 15.5 102920 77
2009-06-23 08:39 51°29.763 2°43.525 9.1 334 15.6 102910 77
2009-06-23 08:40 51°29.92 2°43.591 11.1 333 15.6 102930 77
2009-06-23 08:41 51°30.08 2°43.662 10.7 333 15.5 102920 76
2009-06-23 08:42 51°30.241 2°43.72 11.3 333 15.5 102920 76
2009-06-23 08:43 51°30.405 2°43.774 11.5 333 15.5 102930 76
2009-06-23 08:44 51°30.567 2°43.828 9.2 335 15.5 102930 76
2009-06-23 08:45 51°30.73 2°43.877 11.5 336 15.5 102920 75
2009-06-23 08:46 51°30.895 2°43.926 11.3 334 15.5 102930 75
2009-06-23 08:47 51°31.058 2°43.977 9 334 15.5 102920 75
2009-06-23 08:48 51°31.219 2°44.04 9.9 333 15.5 102930 75
2009-06-23 08:49 51°31.38 2°44.106 11.6 333 15.5 102920 76
2009-06-23 08:50 51°31.541 2°44.17 11.2 334 15.5 102930 75
2009-06-23 08:51 51°31.701 2°44.234 11.6 333 15.4 102930 74
2009-06-23 08:52 51°31.865 2°44.304 10.5 333 15.5 102920 75
2009-06-23 08:53 51°32.022 2°44.37 11.5 333 15.4 102930 75
2009-06-23 08:54 51°32.183 2°44.445 10.9 334 15.4 102920 76
2009-06-23 08:55 51°32.34 2°44.529 11.1 336 15.4 102920 76
2009-06-23 08:56 51°32.497 2°44.612 9.9 335 15.4 102920 76
2009-06-23 08:57 51°32.652 2°44.697 11.2 336 15.5 102920 76
2009-06-23 08:58 51°32.809 2°44.78 11.4 336 15.5 102920 77
2009-06-23 08:59 51°32.965 2°44.865 11.6 333 15.5 102920 76
2009-06-23 09:00 51°33.12 2°44.951 10 335 15.4 102920 76
2009-06-23 09:01 51°33.276 2°45.031 11.4 337 15.4 102930 76
2009-06-23 09:02 51°33.43 2°45.118 11.4 333 15.5 102920 76
2009-06-23 09:03 51°33.581 2°45.214 9.8 334 15.4 102920 76
2009-06-23 09:04 51°33.731 2°45.307 10.1 335 15.4 102920 77
2009-06-23 09:05 51°33.881 2°45.402 11.2 333 15.5 102930 77
2009-06-23 09:06 51°34.031 2°45.491 10.5 336 15.4 102930 78
2009-06-23 09:07 51°34.18 2°45.577 9.8 335 15.4 102930 78
2009-06-23 09:08 51°34.33 2°45.668 10.9 334 15.4 102930 76
2009-06-23 09:09 51°34.48 2°45.754 9.9 334 15.4 102920 77
2009-06-23 09:10 51°34.633 2°45.844 11.3 334 15.4 102920 78
2009-06-23 09:11 51°34.781 2°45.93 10.7 335 15.4 102930 77
2009-06-23 09:12 51°34.933 2°46.02 11 335 15.4 102920 78
2009-06-23 09:13 51°35.081 2°46.103 10.9 334 15.4 102920 77
2009-06-23 09:14 51°35.23 2°46.192 11.1 333 15.3 102920 76
2009-06-23 09:15 51°35.383 2°46.278 10.7 334 15.3 102920 75
2009-06-23 09:16 51°35.532 2°46.36 11.8 333 15.3 102920 75
2009-06-23 09:17 51°35.682 2°46.446 10.8 334 15.3 102920 76
2009-06-23 09:18 51°35.834 2°46.532 10.1 334 15.4 102920 77
2009-06-23 09:19 51°35.987 2°46.61 10.1 334 15.3 102920 76
2009-06-23 09:20 51°36.141 2°46.695 9.9 333 15.3 102930 76
2009-06-23 09:21 51°36.291 2°46.779 9.6 334 15.3 102920 77
2009-06-23 09:22 51°36.444 2°46.869 11.7 334 15.4 102920 78
2009-06-23 09:23 51°36.597 2°46.955 10.4 335 15.3 102930 78
2009-06-23 09:24 51°36.75 2°47.043 12.1 333 15.3 102920 78
2009-06-23 09:25 51°36.905 2°47.135 11.7 331 15.3 102930 78
2009-06-23 09:26 51°37.062 2°47.23 12.3 335 15.3 102930 79
2009-06-23 09:27 51°37.215 2°47.313 10.3 335 15.2 102920 78
2009-06-23 09:28 51°37.372 2°47.406 11.5 332 15.3 102920 78
2009-06-23 09:29 51°37.525 2°47.498 10.7 332 15.3 102920 80
2009-06-23 09:30 51°37.684 2°47.596 12.4 334 15.3 102920 79
2009-06-23 09:31 51°37.838 2°47.695 10.4 333 15.3 102920 80
2009-06-23 09:32 51°37.993 2°47.798 10.8 333 15.2 102920 79
2009-06-23 09:33 51°38.152 2°47.9 12.4 332 15.2 102920 80
2009-06-23 09:34 51°38.306 2°47.998 10.5 335 15.2 102930 80
2009-06-23 09:35 51°38.461 2°48.096 9.7 334 15.2 102930 80
2009-06-23 09:36 51°38.616 2°48.192 12.3 336 15.3 102930 81
2009-06-23 09:37 51°38.772 2°48.293 11.7 336 15.2 102930 80
2009-06-23 09:38 51°38.922 2°48.395 11.8 335 15.3 102930 81
2009-06-23 09:39 51°39.078 2°48.489 9.8 335 15.2 102930 79
2009-06-23 09:40 51°39.238 2°48.569 11.8 339 15.2 102930 80
2009-06-23 09:41 51°39.4 2°48.632 10.1 338 15.3 102940 80
2009-06-23 09:42 51°39.564 2°48.7 12 338 15.3 102930 80
2009-06-23 09:43 51°39.725 2°48.761 12 343 15.3 102930 80
2009-06-23 09:44 51°39.897 2°48.777 10.5 344 15.2 102930 80
2009-06-23 09:45 51°40.064 2°48.786 10.5 342 15.2 102940 80
2009-06-23 09:46 51°40.238 2°48.8 11.5 341 15.1 102930 81
2009-06-23 09:47 51°40.406 2°48.8 11 346 15.1 102930 80
2009-06-23 09:48 51°40.578 2°48.756 9.3 344 15 102940 80
2009-06-23 09:49 51°40.747 2°48.684 9.2 352 15 102940 80
2009-06-23 09:50 51°40.877 2°48.483 8.2 356 14.9 102930 81
2009-06-23 09:51 51°40.958 2°48.199 4.8 1 14.8 102940 81
2009-06-23 09:52 51°40.948 2°47.875 4.1 9 14.8 102950 82
2009-06-23 09:53 51°40.808 2°47.641 2.1 245 14.8 102960 83
2009-06-23 09:54 51°40.609 2°47.512 3 308 15 102960 84
2009-06-23 09:55 51°40.404 2°47.407 3.8 302 15.1 102960 83
2009-06-23 09:56 51°40.203 2°47.295 2.8 307 15.3 102950 82
2009-06-23 09:57 51°39.994 2°47.18 2.6 301 15.5 102950 81
2009-06-23 09:58 51°39.789 2°47.069 1.9 242 15.6 102950 81
2009-06-23 09:59 51°39.586 2°46.957 2.8 301 15.7 102950 80
2009-06-23 10:00 51°39.382 2°46.846 2.2 244 15.8 102950 79
2009-06-23 10:01 51°39.18 2°46.737 3.1 310 15.9 102950 78
2009-06-23 10:02 51°38.977 2°46.629 2.8 246 15.9 102950 78
2009-06-23 10:03 51°38.776 2°46.506 1.9 304 16 102950 78
2009-06-23 10:04 51°38.576 2°46.382 2.7 249 16.1 102950 78
2009-06-23 10:05 51°38.375 2°46.26 3.2 251 16.1 102940 77
2009-06-23 10:06 51°38.172 2°46.141 2.1 306 16.2 102940 77
2009-06-23 10:07 51°37.973 2°46.01 2 245 16.3 102950 77
2009-06-23 10:08 51°37.775 2°45.874 1.3 304 16.4 102940 77
2009-06-23 10:09 51°37.579 2°45.733 2.2 240 16.5 102940 76
2009-06-23 10:10 51°37.382 2°45.591 0.8 307 16.5 102940 75
2009-06-23 10:11 51°37.188 2°45.443 0.8 33 16.6 102940 75
2009-06-23 10:12 51°36.994 2°45.297 0.9 302 16.7 102940 75
2009-06-23 10:13 51°36.798 2°45.148 1.4 308 16.9 102940 75
2009-06-23 10:14 51°36.602 2°44.999 2 236 17 102940 75
2009-06-23 10:15 51°36.407 2°44.851 1.7 301 17.1 102940 74
2009-06-23 10:16 51°36.213 2°44.701 1.7 34 17.1 102940 73
2009-06-23 10:17 51°36.02 2°44.548 0.8 310 17.1 102940 73
2009-06-23 10:18 51°35.826 2°44.397 1.4 235 17.1 102930 73
2009-06-23 10:19 51°35.633 2°44.245 1.3 40 17.1 102940 72
2009-06-23 10:20 51°35.44 2°44.097 0.8 233 17.1 102930 72
2009-06-23 10:21 51°35.247 2°43.947 1.1 242 17.1 102930 72
2009-06-23 10:22 51°35.057 2°43.788 1.4 319 17.1 102930 73
2009-06-23 10:23 51°34.867 2°43.626 1.5 251 17.2 102930 73
2009-06-23 10:24 51°34.676 2°43.471 1.3 247 17.2 102920 73
2009-06-23 10:25 51°34.486 2°43.312 1.6 244 17.2 102920 72
2009-06-23 10:26 51°34.295 2°43.154 1.8 248 17.2 102920 72
2009-06-23 10:27 51°34.103 2°43.002 1.7 254 17.2 102920 71
2009-06-23 10:28 51°33.911 2°42.849 1.4 302 17.2 102920 72
2009-06-23 10:29 51°33.719 2°42.692 1.6 243 17.2 102920 72
2009-06-23 10:30 51°33.528 2°42.533 1.6 246 17.2 102920 72
2009-06-23 10:31 51°33.337 2°42.372 1 236 17.1 102920 72
2009-06-23 10:32 51°33.144 2°42.216 1.2 237 17.1 102930 72
2009-06-23 10:33 51°32.966 2°42.025 1 358 17.1 102920 73
2009-06-23 10:34 51°32.852 2°41.747 4.5 6 17 102920 70
2009-06-23 10:35 51°32.884 2°41.444 8.9 357 16.3 102910 74
2009-06-23 10:36 51°33.031 2°41.276 10.4 343 15.7 102890 78
2009-06-23 10:37 51°33.208 2°41.228 12 339 15.5 102890 80
2009-06-23 10:38 51°33.384 2°41.193 11 341 15.5 102890 80
2009-06-23 10:39 51°33.567 2°41.132 10.6 342 15.5 102890 80
2009-06-23 10:40 51°33.74 2°41.022 10.9 347 15.3 102890 79
2009-06-23 10:41 51°33.901 2°40.861 11.8 346 15.2 102890 82
2009-06-23 10:42 51°34.066 2°40.714 12.5 344 15 102890 82
2009-06-23 10:43 51°34.24 2°40.698 12.2 337 15 102890 82
2009-06-23 10:44 51°34.411 2°40.786 11 334 15.1 102900 81
2009-06-23 10:45 51°34.574 2°40.898 11.3 332 15.2 102900 81
2009-06-23 10:46 51°34.737 2°41.015 11.9 331 15.1 102890 79
2009-06-23 10:47 51°34.898 2°41.133 11.9 332 15.2 102890 80
2009-06-23 10:48 51°35.061 2°41.249 12.8 332 15.2 102890 80
2009-06-23 10:49 51°35.222 2°41.36 12.3 331 15.2 102880 80
2009-06-23 10:50 51°35.389 2°41.478 11.7 334 15.2 102880 80
2009-06-23 10:51 51°35.55 2°41.594 12.2 335 15.1 102890 80
2009-06-23 10:52 51°35.719 2°41.711 12 334 15.1 102890 80
2009-06-23 10:53 51°35.883 2°41.831 11.8 334 15.1 102890 80
2009-06-23 10:54 51°36.048 2°41.953 13.3 336 15.1 102890 79
2009-06-23 10:55 51°36.214 2°42.071 13.2 336 15.1 102900 80
2009-06-23 10:56 51°36.379 2°42.193 13.6 335 15.1 102880 80
2009-06-23 10:57 51°36.543 2°42.318 13.6 333 15.1 102880 80
2009-06-23 10:58 51°36.71 2°42.429 13 335 15.1 102880 81
2009-06-23 10:59 51°36.884 2°42.539 13.4 334 15.1 102890 80
2009-06-23 11:00 51°37.051 2°42.641 13.8 332 15.1 102890 80
2009-06-23 11:01 51°37.223 2°42.749 13.1 334 15.1 102890 81
2009-06-23 11:02 51°37.397 2°42.858 13.4 334 15.1 102880 80
2009-06-23 11:03 51°37.569 2°42.965 12.6 333 15.1 102890 81
2009-06-23 11:04 51°37.741 2°43.077 13.6 333 15.1 102890 81
2009-06-23 11:05 51°37.915 2°43.195 14 333 15.1 102890 80
2009-06-23 11:06 51°38.09 2°43.305 13 335 15.1 102880 80
2009-06-23 11:07 51°38.265 2°43.419 13.7 332 15.1 102880 80
2009-06-23 11:08 51°38.442 2°43.531 11.1 335 15 102890 80
2009-06-23 11:09 51°38.619 2°43.64 12.8 334 15.1 102880 80
2009-06-23 11:10 51°38.796 2°43.754 13.1 333 15.1 102880 81
2009-06-23 11:11 51°38.973 2°43.873 13 336 15.1 102880 81
2009-06-23 11:12 51°39.148 2°43.988 13.2 336 15.1 102880 81
2009-06-23 11:13 51°39.325 2°44.097 13.6 335 15.1 102880 80
2009-06-23 11:14 51°39.499 2°44.208 12 335 15.1 102890 81
2009-06-23 11:15 51°39.684 2°44.304 12.9 336 15.1 102880 81
2009-06-23 11:16 51°39.866 2°44.399 11.9 337 15.1 102890 82
2009-06-23 11:17 51°40.048 2°44.495 14.1 336 15 102880 81
2009-06-23 11:18 51°40.232 2°44.587 13.4 335 15.1 102880 82
2009-06-23 11:19 51°40.415 2°44.678 12.2 338 15 102880 81
2009-06-23 11:20 51°40.599 2°44.764 13.2 337 15 102890 81
2009-06-23 11:21 51°40.783 2°44.857 11.2 336 15.1 102880 81
2009-06-23 11:22 51°40.968 2°44.946 14.4 336 15 102880 82
2009-06-23 11:23 51°41.151 2°45.03 13.9 336 15 102870 82
2009-06-23 11:24 51°41.338 2°45.119 12.7 335 15 102880 82
2009-06-23 11:25 51°41.523 2°45.203 12.6 337 15 102880 82
2009-06-23 11:26 51°41.711 2°45.261 12 341 15 102870 81
2009-06-23 11:27 51°41.9 2°45.304 13.3 343 15 102880 82
2009-06-23 11:28 51°42.089 2°45.291 13.1 343 14.9 102870 80
2009-06-23 11:29 51°42.274 2°45.225 12.8 350 14.8 102870 82
2009-06-23 11:30 51°42.418 2°45.043 9.2 -999 14.7 102870 82
2009-06-23 11:31 51°42.497 2°44.773 8.1 5 14.6 102880 83
2009-06-23 11:32 51°42.56 2°44.489 7.3 358 14.5 102890 84
2009-06-23 11:33 51°42.579 2°44.199 5.6 16 14.5 102890 83
2009-06-23 11:34 51°42.492 2°43.939 1.8 40 14.5 102910 84
2009-06-23 11:35 51°42.349 2°43.733 0.5 306 14.5 102910 84
2009-06-23 11:36 51°42.196 2°43.547 0.4 36 14.8 102910 85
2009-06-23 11:37 51°42.035 2°43.382 1.7 301 15 102910 85
2009-06-23 11:38 51°41.857 2°43.262 2.1 261 15.1 102910 84
2009-06-23 11:39 51°41.679 2°43.139 2.3 305 15.1 102910 83
2009-06-23 11:40 51°41.502 2°43.015 2 59 15.1 102910 83
2009-06-23 11:41 51°41.328 2°42.888 1.8 37 15 102910 82
2009-06-23 11:42 51°41.155 2°42.758 1.3 58 15 102900 81
2009-06-23 11:43 51°40.983 2°42.631 1.2 260 15 102900 82
2009-06-23 11:44 51°40.813 2°42.504 1.7 301 15.1 102910 82
2009-06-23 11:45 51°40.641 2°42.383 1.4 39 15.1 102900 81
2009-06-23 11:46 51°40.471 2°42.261 2.2 53 15.1 102910 81
2009-06-23 11:47 51°40.301 2°42.139 2.7 57 15 102900 80
2009-06-23 11:48 51°40.133 2°42.017 2 51 15 102900 80
2009-06-23 11:49 51°39.965 2°41.895 1.4 54 15 102900 79
2009-06-23 11:50 51°39.798 2°41.771 1.2 39 15 102900 80
2009-06-23 11:51 51°39.634 2°41.655 2.1 57 15.1 102900 81
2009-06-23 11:52 51°39.469 2°41.537 2.1 38 15.1 102900 81
2009-06-23 11:53 51°39.303 2°41.426 2.2 45 15.1 102900 80
2009-06-23 11:54 51°39.138 2°41.321 2.8 35 15.1 102900 80
2009-06-23 11:55 51°38.972 2°41.224 1.4 43 15.1 102900 80
2009-06-23 11:56 51°38.802 2°41.128 1.5 31 15.1 102890 81
2009-06-23 11:57 51°38.632 2°41.028 1.7 39 15.1 102890 80
2009-06-23 11:58 51°38.459 2°40.938 1.6 263 15 102890 80
2009-06-23 11:59 51°38.288 2°40.856 2.5 35 15.1 102890 81
2009-06-23 12:00 51°38.115 2°40.774 2.6 37 15.1 102890 80
2009-06-23 12:01 51°37.942 2°40.694 1.6 265 15.1 102880 79
2009-06-23 12:02 51°37.769 2°40.617 1.6 262 15.1 102890 80
2009-06-23 12:03 51°37.598 2°40.534 2.8 41 15.2 102880 81
2009-06-23 12:04 51°37.426 2°40.45 2.7 268 15.2 102880 80
2009-06-23 12:05 51°37.256 2°40.363 2.8 270 15.2 102880 79
2009-06-23 12:06 51°37.086 2°40.273 2 38 15.1 102880 79
2009-06-23 12:07 51°36.916 2°40.177 1.3 270 15.1 102870 80
2009-06-23 12:08 51°36.746 2°40.08 1.8 33 15.2 102870 81
2009-06-23 12:09 51°36.575 2°39.986 1.8 34 15.1 102870 80
2009-06-23 12:10 51°36.405 2°39.892 1.9 38 15.2 102870 80
2009-06-23 12:11 51°36.237 2°39.793 1.3 37 15.1 102860 80
2009-06-23 12:12 51°36.068 2°39.697 1.2 267 15.2 102860 81
2009-06-23 12:13 51°35.901 2°39.598 2.1 36 15.3 102860 81
2009-06-23 12:14 51°35.734 2°39.5 3.5 270 15.3 102860 80
2009-06-23 12:15 51°35.568 2°39.406 2.6 266 15.3 102860 80
2009-06-23 12:16 51°35.403 2°39.307 3.2 37 15.2 102860 79
2009-06-23 12:17 51°35.241 2°39.206 1.9 33 15.2 102870 79
2009-06-23 12:18 51°35.076 2°39.117 2.7 38 15.2 102860 80
2009-06-23 12:19 51°34.91 2°39.035 2.2 34 15.2 102860 79
2009-06-23 12:20 51°34.743 2°38.957 2.5 41 15.2 102860 80
2009-06-23 12:21 51°34.576 2°38.879 1.4 270 15.2 102860 81
2009-06-23 12:22 51°34.409 2°38.801 2 263 15.3 102860 81
2009-06-23 12:23 51°34.241 2°38.73 2.6 33 15.4 102850 81
2009-06-23 12:24 51°34.075 2°38.653 2.3 37 15.3 102860 80
2009-06-23 12:25 51°33.908 2°38.58 1.8 261 15.3 102860 80
2009-06-23 12:26 51°33.741 2°38.506 3 39 15.3 102850 80
2009-06-23 12:27 51°33.574 2°38.431 2.5 269 15.2 102850 81
2009-06-23 12:28 51°33.406 2°38.358 3 39 15.2 102860 80
2009-06-23 12:29 51°33.239 2°38.284 3.2 270 15.2 102850 79
2009-06-23 12:30 51°33.071 2°38.21 2.3 33 15.2 102850 80
2009-06-23 12:31 51°32.902 2°38.136 2.7 270 15.2 102850 80
2009-06-23 12:32 51°32.735 2°38.064 2.1 264 15.2 102850 80
2009-06-23 12:33 51°32.566 2°37.995 3.6 270 15.2 102850 79
2009-06-23 12:34 51°32.397 2°37.926 3 39 15.2 102850 79
2009-06-23 12:35 51°32.229 2°37.86 1.8 32 15.2 102840 81
2009-06-23 12:36 51°32.061 2°37.793 1.6 262 15.2 102840 81
2009-06-23 12:37 51°31.892 2°37.726 2.9 268 15.3 102840 81
2009-06-23 12:38 51°31.725 2°37.658 2.6 263 15.2 102840 80
2009-06-23 12:39 51°31.557 2°37.59 3.5 38 15.3 102840 80
2009-06-23 12:40 51°31.388 2°37.529 2.9 33 15.2 102840 79
2009-06-23 12:41 51°31.221 2°37.46 2.4 270 15.2 102840 79
2009-06-23 12:42 51°31.054 2°37.394 2.9 38 15.1 102840 80
2009-06-23 12:43 51°30.886 2°37.329 2.4 38 15.2 102840 80
2009-06-23 12:44 51°30.712 2°37.304 3.8 270 15.2 102840 80
2009-06-23 12:45 51°30.537 2°37.291 3.3 270 15.2 102840 80
2009-06-23 12:46 51°30.361 2°37.281 3 265 15.3 102840 81
2009-06-23 12:47 51°30.185 2°37.273 3.5 270 15.3 102840 81
2009-06-23 12:48 51°30.007 2°37.263 3.1 267 15.3 102840 79
2009-06-23 12:49 51°29.83 2°37.254 3.4 39 15.3 102830 79
2009-06-23 12:50 51°29.655 2°37.242 3.6 270 15.3 102830 79
2009-06-23 12:51 51°29.479 2°37.228 3.1 44 15.4 102830 79
2009-06-23 12:52 51°29.305 2°37.213 2.6 265 15.4 102830 79
2009-06-23 12:53 51°29.128 2°37.235 4.6 36 15.4 102820 80
2009-06-23 12:54 51°28.952 2°37.266 3.6 268 15.4 102830 79
2009-06-23 12:55 51°28.775 2°37.292 3.1 262 15.4 102830 80
2009-06-23 12:56 51°28.599 2°37.319 3.2 267 15.5 102820 79
2009-06-23 12:57 51°28.428 2°37.389 7.4 254 15.5 102820 80
2009-06-23 12:58 51°28.276 2°37.558 9.3 250 15.7 102820 80
2009-06-23 12:59 51°28.126 2°37.747 8.8 252 15.7 102810 79
2009-06-23 13:00 51°27.975 2°37.934 7.2 249 15.7 102800 79
2009-06-23 13:01 51°27.826 2°38.116 9.9 254 15.8 102800 78
2009-06-23 13:02 51°27.676 2°38.298 10.5 256 15.8 102810 78
2009-06-23 13:03 51°27.539 2°38.507 9.8 249 15.9 102800 78
2009-06-23 13:04 51°27.433 2°38.776 9.2 246 15.9 102800 78
2009-06-23 13:05 51°27.328 2°39.048 9.7 245 15.8 102790 79
2009-06-23 13:06 51°27.218 2°39.313 8.5 240 15.7 102790 78
2009-06-23 13:07 51°27.117 2°39.587 10.4 243 15.8 102790 79
2009-06-23 13:08 51°27.033 2°39.875 11.8 239 15.7 102780 79
2009-06-23 13:09 51°26.95 2°40.158 11.8 242 15.7 102780 79
2009-06-23 13:10 51°26.855 2°40.43 10.5 249 15.6 102780 79
2009-06-23 13:11 51°26.75 2°40.691 8.9 242 15.7 102780 80
2009-06-23 13:12 51°26.652 2°40.961 9.6 244 15.7 102780 81
2009-06-23 13:13 51°26.557 2°41.235 11 244 15.7 102770 80
2009-06-23 13:14 51°26.454 2°41.496 10.3 247 15.7 102770 81
2009-06-23 13:15 51°26.331 2°41.729 10.4 258 15.7 102770 80
2009-06-23 13:16 51°26.188 2°41.919 8.9 254 15.7 102780 80
2009-06-23 13:17 51°26.034 2°42.087 7.3 253 15.7 102790 80
2009-06-23 13:18 51°25.88 2°42.25 8.3 257 15.8 102780 79
2009-06-23 13:19 51°25.726 2°42.416 7.8 258 15.9 102780 79
2009-06-23 13:20 51°25.574 2°42.585 6.7 249 15.9 102770 79
2009-06-23 13:21 51°25.418 2°42.739 10.2 256 15.9 102770 78
2009-06-23 13:22 51°25.262 2°42.889 6.2 261 15.9 102770 77
2009-06-23 13:23 51°25.109 2°43.043 8.2 260 15.9 102780 77
2009-06-23 13:24 51°24.958 2°43.203 8.6 259 15.9 102770 78
2009-06-23 13:25 51°24.805 2°43.362 9 260 16 102760 79
2009-06-23 13:26 51°24.65 2°43.52 8.5 259 16 102760 78
2009-06-23 13:27 51°24.496 2°43.681 8.9 256 16 102760 79
2009-06-23 13:28 51°24.34 2°43.84 8.7 254 16.1 102750 77
2009-06-23 13:29 51°24.184 2°44.002 6.8 256 16.1 102750 77
2009-06-23 13:30 51°24.027 2°44.162 6.3 261 16.1 102750 76
2009-06-23 13:31 51°23.87 2°44.325 10.5 259 16.1 102750 77
2009-06-23 13:32 51°23.711 2°44.487 6.4 261 16.1 102750 77
2009-06-23 13:33 51°23.551 2°44.65 8.6 255 16.1 102760 78
2009-06-23 13:34 51°23.39 2°44.806 8 261 16 102750 76
2009-06-23 13:35 51°23.23 2°44.969 8 260 16.1 102750 76
2009-06-23 13:36 51°23.071 2°45.132 7.8 254 16.1 102750 75
2009-06-23 13:37 51°22.912 2°45.293 4.8 264 16.1 102750 75
2009-06-23 13:38 51°22.76 2°45.45 5.8 261 16 102750 76
2009-06-23 13:39 51°22.608 2°45.604 9.9 254 16 102740 78
2009-06-23 13:40 51°22.457 2°45.759 8.7 257 16.1 102740 79
2009-06-23 13:41 51°22.304 2°45.917 7.7 257 16.1 102730 78
2009-06-23 13:42 51°22.149 2°46.077 8.9 257 16.1 102740 77
2009-06-23 13:43 51°21.994 2°46.238 6.3 260 16.1 102730 76
2009-06-23 13:44 51°21.837 2°46.396 7.4 257 16.1 102730 75
2009-06-23 13:45 51°21.682 2°46.555 9 258 16.2 102730 77
2009-06-23 13:46 51°21.525 2°46.716 7.1 262 16.2 102730 76
2009-06-23 13:47 51°21.369 2°46.88 5.1 264 16.2 102730 75
2009-06-23 13:48 51°21.216 2°47.057 6.9 259 16.1 102720 76
2009-06-23 13:49 51°21.062 2°47.241 9.9 259 16.2 102720 77
2009-06-23 13:50 51°20.907 2°47.422 9.4 259 16.2 102710 78
2009-06-23 13:51 51°20.75 2°47.604 11.4 257 16.2 102720 74
2009-06-23 13:52 51°20.597 2°47.795 8.8 253 16.2 102710 73
2009-06-23 13:53 51°20.447 2°47.995 8.2 253 16.2 102700 74
2009-06-23 13:54 51°20.297 2°48.198 11.3 254 16.3 102720 74
2009-06-23 13:55 51°20.153 2°48.412 8.6 251 16.2 102710 74
2009-06-23 13:56 51°20.012 2°48.63 9.5 257 16.2 102710 74
2009-06-23 13:57 51°19.871 2°48.836 12.5 258 16.3 102700 76
2009-06-23 13:58 51°19.728 2°49.035 10.8 257 16.3 102710 75
2009-06-23 13:59 51°19.581 2°49.228 8.5 262 16.3 102700 74
2009-06-23 14:00 51°19.433 2°49.426 8.8 252 16.3 102700 74
2009-06-23 14:01 51°19.286 2°49.626 11 254 16.3 102700 73
2009-06-23 14:02 51°19.136 2°49.822 10.4 255 16.3 102710 74
2009-06-23 14:03 51°18.984 2°50.01 10.9 256 16.3 102700 75
2009-06-23 14:04 51°18.834 2°50.201 10.4 261 16.3 102700 74
2009-06-23 14:05 51°18.683 2°50.392 9.1 259 16.3 102700 75
2009-06-23 14:06 51°18.534 2°50.58 10.7 260 16.3 102700 75
2009-06-23 14:07 51°18.387 2°50.767 8.4 257 16.3 102690 75
2009-06-23 14:08 51°18.239 2°50.956 11.2 260 16.3 102690 74
2009-06-23 14:09 51°18.091 2°51.142 8.1 261 16.3 102690 75
2009-06-23 14:10 51°17.943 2°51.33 10.4 257 16.3 102690 77
2009-06-23 14:11 51°17.797 2°51.517 12.2 256 16.3 102690 77
2009-06-23 14:12 51°17.65 2°51.701 11.1 260 16.3 102680 76
2009-06-23 14:13 51°17.503 2°51.886 9.6 261 16.3 102680 74
2009-06-23 14:14 51°17.356 2°52.075 9.2 256 16.3 102670 75
2009-06-23 14:15 51°17.208 2°52.259 10.8 258 16.3 102670 76
2009-06-23 14:16 51°17.058 2°52.441 8.7 259 16.3 102670 77
2009-06-23 14:17 51°16.904 2°52.617 11.6 257 16.4 102680 77
2009-06-23 14:18 51°16.753 2°52.795 12.6 257 16.3 102680 76
2009-06-23 14:19 51°16.598 2°52.973 10.9 258 16.3 102670 75
2009-06-23 14:20 51°16.446 2°53.154 11.1 256 16.4 102670 77
2009-06-23 14:21 51°16.287 2°53.317 7.5 252 16.5 102670 78
2009-06-23 14:22 51°16.126 2°53.474 8.8 261 16.4 102670 77
2009-06-23 14:23 51°15.966 2°53.634 8.4 262 16.4 102670 79
2009-06-23 14:24 51°15.804 2°53.791 6 264 16.3 102670 76
2009-06-23 14:25 51°15.636 2°53.93 7.1 260 16.3 102670 78
2009-06-23 14:26 51°15.475 2°54.083 12.4 258 16.4 102670 80
2009-06-23 14:27 51°15.318 2°54.246 8.4 262 16.4 102660 80
2009-06-23 14:28 51°15.143 2°54.329 4.2 269 16.4 102670 79
2009-06-23 14:29 51°14.962 2°54.387 4.6 265 16.3 102670 79
2009-06-23 14:30 51°14.787 2°54.473 8.8 256 16.3 102660 80
2009-06-23 14:31 51°14.634 2°54.645 10.7 257 16.3 102650 80
2009-06-23 14:32 51°14.493 2°54.847 10.5 259 16.4 102640 81
2009-06-23 14:33 51°14.355 2°55.053 8.9 248 16.5 102660 80
2009-06-23 14:34 51°14.243 2°55.265 9.3 260 16.5 102640 80
2009-06-23 14:35 51°14.127 2°55.407 4.1 260 16.5 102660 80
2009-06-23 14:36 51°14.007 2°55.494 5.1 263 16.5 102660 80
2009-06-23 14:37 51°13.901 2°55.57 6.5 256 16.6 102670 80
2009-06-23 14:38 51°13.802 2°55.646 6.1 260 16.7 102670 78
2009-06-23 14:39 51°13.73 2°55.757 3.7 260 16.6 102670 77
2009-06-23 14:40 51°13.689 2°55.85 3.9 35 16.7 102670 78